RH
56 56 56 55 56 56 56 56 56 56 56 56 56 56 57 58 59 59 59 59 58 57 57 56 56 56 57 59 62 65 68 71 73 76 79 81 83 84 85 83 81 79 80 82 85 86 85 82 79 77 77 77 77 77 77 78 78 79 79 80 81 81 80 81 81 82 83 86 88 90 90 88 87 85 82 81 81 81 81 81 81 80 80 80 81 82
57 57 57 57 57 57 57 57 58 58 58 58 57 57 57 57 57 58 59 59 59 59 58 57 57 57 56 57 59 62 65 68 71 73 76 79 82 84 87 86 84 81 80 82 85 87 89 87 84 81 79 77 76 76 76 77 78 79 80 80 80 80 79 80 81 83 85 87 89 90 89 87 85 84 82 81 82 83 83 82 81 80 79 80 80 80
58 58 58 58 58 58 58 58 59 59 60 60 60 60 59 58 58 58 58 59 59 60 60 59 59 58 58 58 59 61 63 65 68 70 73 75 79 82 86 86 85 83 81 81 83 86 90 90 90 87 84 80 77 75 75 76 77 78 79 79 78 78 77 78 79 81 83 86 88 89 89 86 84 82 81 81 82 83 83 82 81 80 80 79 78 76
61 60 60 60 60 60 60 60 60 61 62 63 64 64 63 62 61 61 60 60 60 60 60 61 61 60 60 60 60 61 62 64 66 68 70 72 75 78 82 85 86 84 83 81 81 83 87 90 91 92 90 86 82 78 76 75 76 77 77 77 76 75 75 75 76 78 80 83 86 87 87 85 83 82 81 81 82 83 83 82 81 80 79 78 77 76
63 62 62 62 62 62 62 62 63 63 65 66 68 68 68 67 66 64 63 62 61 60 60 61 61 61 61 60 61 62 62 64 66 68 69 71 72 75 78 82 84 85 83 82 81 81 83 87 90 92 93 91 88 84 81 79 78 78 77 77 75 74 73 74 74 76 78 80 83 84 85 83 82 81 81 82 83 83 83 82 81 80 79 79 79 80
65 64 64 64 64 64 65 65 66 67 68 70 71 72 73 73 71 70 67 65 63 61 60 61 61 61 61 61 61 62 63 64 66 68 69 71 72 74 76 79 82 84 84 83 82 81 81 84 87 90 92 93 92 90 88 86 83 82 80 78 76 74 73 73 74 75 77 79 80 81 82 81 81 81 82 83 84 84 84 83 82 82 83 83 85 88
67 66 65 65 66 67 68 69 69 70 71 73 74 75 77 77 76 75 73 70 67 64 62 61 61 61 62 62 62 63 64 65 67 68 70 71 73 74 75 78 81 83 85 84 83 81 80 81 83 86 89 91 93 93 92 91 89 86 84 81 78 76 75 75 75 76 77 78 79 80 80 80 81 82 83 84 85 86 86 86 86 86 87 89 92 95
70 69 68 68 69 70 72 73 73 73 74 77 78 78 78 78 77 77 76 75 72 70 67 65 63 62 62 62 63 64 65 66 67 68 69 71 72 74 75 78 80 83 86 86 85 83 81 80 81 82 86 89 92 93 93 93 92 89 87 83 80 78 77 77 78 78 79 79 79 79 80 81 82 83 84 85 86 87 88 89 89 90 90 92 95 97
75 74 72 72 72 74 76 76 76 77 78 81 81 80 78 77 76 75 75 75 74 73 70 68 66 65 64 64 64 64 65 66 67 67 68 69 70 71 73 76 79 82 85 87 86 85 83 81 80 80 83 87 90 93 93 93 92 91 88 85 82 80 79 80 80 81 81 81 81 81 81 82 83 83 83 84 85 86 88 90 91 91 91 92 94 96
79 78 78 77 77 77 79 79 79 80 82 84 84 83 80 78 75 73 72 71 71 71 70 68 67 66 65 65 65 66 66 67 69 70 71 71 71 72 73 75 77 79 82 85 86 86 84 82 80 80 80 84 88 92 94 94 93 91 89 86 83 82 81 82 83 84 84 84 84 83 83 83 83 83 83 83 83 84 86 87 88 89 89 91 92 93
81 80 80 80 80 79 80 81 82 83 85 87 88 87 84 82 78 74 71 69 68 67 66 66 66 65 65 65 66 67 68 69 71 73 75 77 78 79 79 79 80 80 82 83 84 85 85 83 81 79 78 81 85 91 95 95 95 93 90 88 85 83 83 84 85 87 87 87 86 86 85 84 83 83 82 82 81 82 83 84 85 85 86 88 89 89
81 80 80 80 80 81 81 82 84 85 85 87 88 88 85 83 80 78 75 70 67 64 63 63 63 64 65 66 67 68 69 70 72 74 76 79 81 83 83 83 83 83 83 83 84 85 86 85 83 80 78 78 82 88 95 96 96 95 93 90 88 87 87 88 89 89 89 89 88 87 86 84 83 82 81 81 81 82 82 83 83 83 83 85 86 87
80 79 79 79 79 79 79 80 81 83 84 84 84 83 80 79 78 78 78 74 70 66 64 63 63 64 66 68 69 70 71 73 74 76 77 79 80 81 82 82 82 82 82 82 83 83 84 85 84 82 79 79 81 86 93 97 98 97 96 95 93 93 93 94 93 93 93 91 90 87 85 84 83 82 82 82 82 83 84 85 84 84 83 84 85 86
78 78 77 77 77 76 76 77 78 78 78 78 77 76 74 75 76 77 78 76 73 70 68 67 67 67 67 69 71 73 75 77 77 78 78 79 80 81 80 79 79 79 79 80 80 81 81 82 82 80 79 79 81 86 92 97 99 99 99 98 98 97 97 97 97 96 95 93 91 88 85 84 83 83 84 84 85 86 87 86 86 85 84 85 87 87
78 77 77 76 74 73 72 73 74 74 72 72 73 74 73 74 75 76 76 75 74 72 71 71 71 70 70 71 73 75 78 80 81 80 79 80 80 81 80 79 78 78 78 79 79 79 79 80 79 78 77 77 80 84 90 96 99 100 100 99 99 99 98 98 98 97 97 95 93 90 88 86 86 86 86 87 88 89 90 88 86 86 87 88 89 90
78 77 77 75 73 70 69 70 71 72 71 72 72 73 74 74 74 74 73 73 72 72 72 72 72 72 71 71 73 76 79 82 83 82 79 79 80 81 82 81 80 80 80 80 79 79 79 79 79 78 76 76 78 81 86 92 97 100 100 100 100 99 98 98 98 97 97 96 95 93 91 90 90 89 88 90 92 93 92 88 87 87 90 91 92 93
78 77 75 74 73 71 70 70 72 73 74 75 75 75 74 74 74 73 71 71 71 71 71 72 72 72 70 68 70 73 77 80 82 82 80 79 79 80 83 83 83 81 81 81 80 80 80 80 80 80 78 78 78 80 82 86 91 95 98 99 99 99 98 98 98 97 97 96 95 95 94 95 94 93 92 94 95 96 94 92 92 94 94 95 95 95
79 78 76 75 75 74 73 73 74 75 76 78 77 76 75 75 74 73 72 71 71 71 71 71 71 70 67 65 65 68 73 78 80 81 81 80 78 78 81 83 84 83 82 81 80 80 81 81 82 82 82 82 81 80 80 82 84 87 90 94 96 98 98 98 97 97 97 97 96 96 97 98 98 97 96 96 96 96 94 95 96 96 97 97 97 96
80 79 79 78 77 76 76 76 77 78 78 79 78 77 77 76 76 75 75 73 72 71 70 70 70 68 66 64 63 64 68 75 78 79 79 79 78 78 78 82 83 84 82 81 81 81 82 83 84 85 85 85 84 83 81 80 79 80 81 83 86 89 92 92 93 94 95 96 97 97 98 99 99 98 97 97 97 96 95 97 98 98 98 98 98 96
82 80 81 81 80 79 78 79 80 80 80 80 79 78 78 77 76 76 76 74 73 71 70 70 70 68 67 66 64 64 66 73 78 80 78 78 77 76 77 80 82 83 82 81 80 81 83 84 85 87 88 87 86 85 84 83 81 79 77 77 77 78 80 83 85 87 89 91 93 95 97 98 99 98 97 97 96 95 95 97 98 99 99 98 97 95
90 85 82 82 83 82 80 81 82 83 82 83 83 82 80 77 76 76 76 75 74 73 72 71 70 68 67 67 66 66 66 73 78 79 78 77 76 75 76 78 79 80 80 79 80 82 83 84 85 87 88 88 88 87 87 86 84 82 80 77 75 74 73 75 77 80 84 87 89 91 93 96 97 98 99 98 96 96 97 98 99 99 98 98 96 93
97 93 88 87 86 86 84 85 85 85 87 88 87 85 81 78 76 75 75 74 74 74 74 72 71 69 69 68 69 68 68 76 79 79 77 76 75 75 75 77 78 78 78 78 79 80 82 83 84 85 85 86 87 88 89 89 88 87 84 82 79 77 76 76 77 78 81 83 86 88 88 93 96 98 100 99 99 99 99 99 99 98 97 96 93 90
100 99 97 95 93 91 90 89 89 89 90 91 91 88 85 81 78 76 75 74 74 74 74 74 73 72 72 72 72 72 71 77 80 81 77 75 73 72 73 75 77 78 77 77 77 79 81 83 83 84 84 85 86 87 89 89 89 89 89 87 85 84 83 82 82 82 83 85 87 89 90 93 96 99 100 100 100 100 99 99 99 98 96 94 91 87
100 100 100 99 98 96 95 94 94 93 94 94 93 91 88 85 81 78 76 76 76 77 77 77 77 77 76 76 75 75 75 78 82 84 81 77 73 71 70 73 76 77 77 77 77 78 80 82 83 83 82 84 85 86 88 89 91 92 91 91 91 91 90 90 90 89 90 91 91 92 93 96 98 100 100 100 100 100 100 99 98 97 94 91 88 85
99 100 100 100 99 98 96 96 96 95 94 94 94 93 91 89 87 84 82 82 82 82 83 82 81 79 78 77 77 78 77 80 83 86 83 78 74 71 70 72 74 76 77 77 78 79 80 81 82 82 82 83 84 85 87 89 90 92 92 92 93 94 95 97 97 96 96 96 95 95 97 99 100 100 100 100 99 99 99 98 97 94 91 88 86 83
98 99 99 99 99 99 98 97 96 95 95 94 94 93 93 93 92 91 91 89 87 87 86 85 81 77 75 75 76 77 77 80 84 86 85 79 75 73 70 71 74 76 77 77 78 80 82 82 82 82 83 83 84 85 87 89 90 92 93 92 94 95 98 98 98 98 98 97 97 98 99 100 100 100 100 99 99 99 98 96 94 91 88 86 84 83
97 97 97 98 98 99 99 99 98 97 96 95 94 94 94 94 94 94 92 89 86 85 85 82 78 75 72 72 73 74 75 79 83 86 86 83 79 75 71 71 73 75 76 77 79 81 83 83 83 83 82 83 84 86 87 89 90 92 93 94 95 96 97 98 98 99 99 99 99 100 99 99 100 100 99 99 98 97 95 93 90 88 86 85 85 85
97 97 96 96 97 98 99 99 99 98 97 96 95 95 95 95 94 91 87 83 82 83 84 80 77 74 71 70 70 70 73 77 81 84 86 86 82 77 73 71 72 75 77 77 78 80 83 84 83 83 82 84 85 86 88 89 91 92 92 94 95 96 97 98 99 99 99 99 99 99 99 99 99 99 99 97 95 92 90 89 87 87 86 85 86 86
96 96 97 97 96 96 97 98 99 99 99 99 98 97 97 97 95 90 83 80 81 82 83 79 76 73 70 69 69 70 72 75 78 82 86 86 83 78 73 72 73 75 77 77 77 78 81 82 82 82 82 82 84 85 87 88 90 91 93 94 95 96 97 97 97 98 99 99 99 99 99 99 98 96 94 92 89 88 87 86 86 86 86 86 87 88
92 93 94 95 95 96 96 97 98 99 99 100 99 99 99 98 96 93 86 83 82 82 82 79 76 74 72 71 71 71 72 72 75 79 85 85 81 76 73 73 74 75 77 77 77 76 76 76 78 79 80 80 81 82 83 84 87 89 92 93 95 96 96 95 95 96 97 97 97 97 97 96 94 92 89 87 86 86 86 86 86 87 87 88 90 91
87 88 89 90 92 94 96 97 98 98 98 99 100 100 100 98 98 97 94 89 86 83 81 79 77 75 74 74 73 71 69 67 70 76 84 84 79 74 73 74 74 75 77 77 76 74 70 69 71 75 77 77 77 78 78 79 81 84 88 90 93 95 94 94 94 94 94 94 94 94 93 92 90 88 87 87 87 87 87 87 87 87 89 91 92 92
84 84 85 86 88 90 93 96 98 98 98 99 99 100 100 98 98 98 98 95 90 86 82 79 78 76 76 75 73 70 66 63 66 72 81 82 78 74 72 74 74 74 76 77 76 73 69 66 67 70 74 75 75 75 75 76 77 79 82 85 88 90 91 92 93 93 93 92 91 90 89 88 88 87 87 87 88 88 87 87 87 89 92 93 93 92
85 84 84 84 85 87 90 93 95 97 98 99 99 100 100 99 98 98 99 97 94 90 85 81 79 77 76 76 74 71 67 64 65 70 79 81 78 75 73 74 75 75 76 77 77 75 72 68 67 69 73 74 75 74 74 74 75 75 77 79 82 84 87 89 92 93 93 92 91 90 89 89 88 88 88 88 88 88 88 88 89 91 94 94 94 92
88 86 85 84 84 84 86 89 91 93 95 97 98 99 99 99 98 98 97 98 97 95 90 85 81 78 77 76 75 73 70 68 67 70 78 81 79 76 73 74 75 76 76 77 77 77 75 72 70 70 72 75 76 76 75 75 75 75 75 76 77 79 81 85 87 90 91 91 91 91 91 91 91 90 90 89 89 89 90 90 91 92 94 94 93 91
91 88 87 85 84 84 85 86 88 90 92 94 95 97 98 99 99 98 98 98 98 97 95 90 85 81 78 77 75 74 72 71 70 71 78 82 81 77 74 74 74 75 77 76 76 76 75 73 71 71 71 73 75 76 76 76 76 76 76 76 75 75 76 79 81 83 84 86 87 88 88 89 89 90 90 89 90 90 90 90 91 91 92 92 92 91
94 91 88 87 86 86 85 86 87 88 90 91 93 94 96 97 98 98 99 98 98 98 97 95 90 86 82 79 77 75 74 73 73 74 79 82 81 78 75 73 73 74 76 76 75 74 74 72 71 70 71 71 72 73 74 75 77 78 78 78 77 75 74 75 76 77 77 79 80 81 81 81 82 83 84 85 86 87 87 87 87 88 88 89 89 90
96 93 88 88 87 87 86 86 87 87 88 90 91 92 94 95 96 97 98 98 98 98 98 97 95 92 88 84 81 79 78 77 77 78 80 84 84 81 78 74 73 73 75 75 74 74 73 72 71 70 71 71 70 69 70 73 75 77 78 78 78 77 75 74 74 74 73 73 74 74 74 74 75 76 77 79 80 82 82 83 84 84 85 86 87 88
94 91 87 85 86 87 87 86 86 87 88 89 90 91 93 94 95 95 96 97 98 98 97 98 97 95 93 90 87 85 83 83 83 83 83 86 87 85 80 77 74 73 75 74 73 72 73 73 72 71 70 69 68 67 68 70 72 74 75 76 77 77 77 75 74 74 72 70 70 69 69 69 69 70 71 73 74 76 77 78 80 81 82 83 84 85
90 87 85 83 82 83 84 85 85 86 87 88 89 91 92 93 94 95 95 96 97 98 98 98 98 97 96 94 93 91 89 88 88 87 86 89 90 89 85 80 77 75 77 77 76 74 73 74 72 71 69 67 67 67 68 70 71 72 72 74 76 77 77 76 75 73 72 70 69 68 67 67 67 67 68 69 70 70 71 73 74 75 76 77 79 80
83 82 82 81 81 80 81 81 82 83 85 87 89 91 94 95 96 97 97 97 97 98 98 98 98 98 98 97 96 95 94 93 92 91 89 90 92 93 91 85 81 78 78 80 80 78 76 75 73 71 67 66 67 67 67 69 71 72 72 73 75 76 77 76 75 74 74 72 70 69 68 68 68 68 68 68 68 68 68 68 69 70 70 71 73 74
77 77 77 78 78 79 80 81 82 83 85 87 90 93 96 96 97 97 98 98 97 97 97 97 96 97 97 97 97 97 96 96 96 95 94 92 92 94 95 91 87 83 80 82 83 82 81 78 75 73 71 70 68 68 67 69 71 73 74 75 75 75 76 77 78 77 76 75 74 73 72 71 71 70 69 69 68 68 67 67 67 66 67 67 68 68
77 76 76 77 78 79 79 81 83 85 87 89 92 94 96 96 96 95 96 97 97 97 97 96 96 96 97 97 97 97 97 97 97 97 97 95 95 95 97 96 92 88 86 86 86 86 84 81 78 77 75 73 71 70 69 69 70 73 76 77 76 76 77 78 79 79 80 79 78 76 76 75 74 73 72 70 69 68 67 67 66 66 65 65 65 65
78 77 76 78 79 81 82 83 85 88 91 92 93 93 94 95 94 94 93 93 94 94 94 95 95 94 93 93 94 95 96 97 97 96 96 96 96 96 97 97 96 95 93 92 90 88 86 83 82 80 78 75 74 73 71 70 70 73 76 78 78 78 77 78 78 79 80 80 79 77 77 76 75 74 72 71 70 69 68 67 67 66 66 65 64 64
83 80 79 80 81 83 85 86 88 91 93 93 93 92 93 94 94 93 93 91 91 91 92 92 92 92 90 88 88 89 91 95 96 96 96 97 97 97 97 97 97 96 96 95 92 89 87 85 84 82 80 79 78 77 74 73 72 73 75 77 78 77 76 75 74 75 76 77 76 76 75 74 74 73 71 71 70 69 68 68 67 67 66 66 65 64
89 87 84 84 85 86 86 86 88 90 91 91 91 91 92 93 93 94 92 90 90 90 90 91 91 90 87 84 83 83 85 89 93 96 96 97 96 96 97 96 96 96 95 94 92 89 87 86 84 82 81 82 81 80 78 75 74 74 75 76 77 77 75 73 72 72 72 73 74 74 74 74 73 73 72 71 70 70 69 68 67 67 67 66 66 65
91 90 87 87 86 86 86 86 87 89 90 90 89 89 90 92 93 93 92 90 89 89 89 90 89 87 83 80 79 78 79 82 86 90 94 95 96 97 97 96 96 96 96 95 93 90 87 85 84 83 82 83 83 82 80 77 76 75 75 76 77 77 77 75 74 72 71 71 71 72 72 73 74 74 74 72 71 70 69 68 68 67 67 67 66 65
88 88 87 87 87 87 86 86 87 88 89 88 87 87 88 90 91 92 92 90 89 88 88 89 88 85 81 78 76 75 75 76 79 82 87 91 94 96 97 96 96 96 96 96 95 94 92 88 86 85 85 85 84 82 80 78 77 77 76 75 76 76 77 76 75 74 73 71 71 71 71 73 75 76 75 74 73 71 70 69 69 68 68 67 66 65
88 88 87 87 88 88 87 87 87 88 89 87 86 86 86 88 89 91 91 90 89 88 88 88 87 84 81 78 76 74 73 73 74 76 80 85 90 94 96 96 96 96 95 96 95 95 94 92 90 89 88 87 83 80 78 78 78 78 77 76 75 75 76 75 74 74 74 73 73 72 72 73 75 75 75 74 74 72 71 70 70 69 69 68 67 66
88 89 88 89 89 88 87 87 87 88 88 87 86 86 86 87 88 90 89 88 88 87 87 86 85 82 80 79 77 76 75 74 74 74 76 80 85 89 92 95 96 96 95 95 95 96 95 94 93 92 91 89 85 80 77 76 77 78 78 76 76 75 75 74 73 73 73 74 75 75 75 74 74 74 74 74 73 72 71 70 70 70 70 69 68 67
88 89 89 90 89 88 87 87 87 88 88 87 86 86 86 87 88 89 89 88 87 87 86 85 83 82 80 78 77 77 76 76 75 75 75 78 81 85 88 91 94 95 95 94 94 95 95 95 95 94 93 91 88 85 80 77 76 77 78 77 76 75 75 74 73 72 72 73 74 76 77 77 76 75 75 75 73 72 70 70 70 69 69 70 69 68
87 88 89 90 90 89 87 87 88 89 89 88 87 87 87 88 89 90 90 89 88 87 85 84 83 82 80 78 77 77 77 76 76 76 75 76 79 82 86 88 89 90 88 88 88 89 89 88 88 89 89 89 89 87 84 81 79 78 77 76 75 75 75 75 74 73 73 73 74 75 77 78 78 78 78 77 76 73 71 70 69 69 69 69 69 69
Wind_Speed
27 26 24 23 23 24 24 23 21 22 23 22 21 20 19 19 20 21 22 23 24 25 25 25 25 25 25 25 25 26 27 27 28 28 28 28 28 28 28 29 30 30 31 31 32 33 34 36 37 37 38 38 39 39 39 39 38 38 37 37 37 36 36 35 34 34 34 34 33 33 32 31 30 30 30 30 30 30 30 29 29 29 28 28 28 27
27 26 25 24 23 23 24 23 22 22 23 23 22 21 20 20 20 20 20 21 23 24 24 25 26 26 26 26 26 26 27 27 27 28 28 28 28 28 28 29 29 30 30 31 31 32 33 35 36 37 37 38 39 39 39 39 38 38 37 37 37 36 36 35 34 34 34 34 33 33 32 31 31 31 31 30 30 30 30 30 29 29 29 28 28 28
27 26 26 24 23 22 23 23 22 21 22 22 22 21 21 21 21 21 20 20 21 22 23 23 24 25 26 26 26 26 27 27 27 28 28 28 28 28 28 28 29 30 30 31 31 32 32 34 36 37 37 38 39 39 39 39 39 38 38 37 37 36 36 35 35 35 34 34 34 33 32 32 31 31 31 31 31 31 31 30 30 29 29 29 29 29
28 27 26 24 22 22 23 22 21 20 20 20 19 19 20 21 22 22 21 20 20 21 21 22 23 24 25 25 25 26 26 26 27 27 28 28 29 28 28 28 29 29 30 30 31 31 32 33 35 36 37 38 39 39 39 39 39 39 38 38 37 37 36 36 36 35 35 35 34 34 33 32 32 32 31 31 31 31 31 30 30 30 29 29 29 29
28 27 25 23 22 22 22 22 20 20 19 18 17 17 18 20 21 21 21 21 21 22 22 22 23 24 24 24 24 24 25 25 26 26 27 28 29 29 29 29 29 29 30 30 31 31 32 32 34 35 36 37 38 39 39 39 39 39 39 38 38 37 37 37 36 36 36 35 35 34 33 32 32 32 32 32 32 31 31 30 30 30 30 30 29 28
28 26 25 23 22 22 21 20 19 18 17 17 17 17 17 18 19 19 20 21 22 22 22 22 23 23 23 24 24 24 24 24 25 26 26 27 28 29 29 29 29 30 30 30 31 31 32 32 33 34 35 36 37 38 38 39 39 39 38 38 38 38 38 37 37 37 36 36 35 34 33 33 33 32 32 32 31 31 31 30 30 30 29 29 28 28
27 26 25 24 22 21 19 18 17 17 16 16 16 16 16 17 17 18 19 20 21 22 23 23 23 23 23 23 23 23 23 24 24 25 26 27 28 29 29 30 30 30 31 31 31 31 32 32 32 33 34 35 36 37 38 38 38 38 38 38 38 38 38 38 37 37 36 36 35 34 34 33 33 33 32 32 31 31 31 31 30 30 29 28 28 27
25 26 24 23 21 19 18 17 17 17 16 15 14 15 15 16 16 17 18 20 21 22 23 23 24 24 23 23 22 22 22 22 22 23 24 25 26 27 29 30 30 31 31 32 32 32 32 32 33 33 33 34 35 36 37 38 38 38 38 38 38 38 38 38 38 37 37 36 35 35 34 34 34 33 33 32 32 32 31 31 31 30 29 28 28 27
25 24 24 22 20 18 17 17 17 16 15 14 14 14 15 15 16 16 17 18 20 21 21 22 23 23 23 22 21 21 21 21 21 21 21 22 23 24 26 27 28 30 31 32 33 33 33 33 33 33 33 33 34 35 37 38 38 38 38 38 38 38 38 38 38 37 37 36 35 35 34 34 34 34 33 33 32 32 32 31 31 30 30 29 28 27
26 24 23 22 21 19 18 17 16 15 14 13 14 15 15 15 16 17 17 18 19 19 19 20 21 22 22 21 20 19 19 20 21 21 21 22 23 23 24 25 26 27 29 30 32 33 34 34 34 34 34 34 34 34 36 37 38 38 39 39 39 39 39 39 38 38 37 36 36 35 34 34 34 34 33 33 33 32 32 31 31 31 30 29 29 27
24 24 23 21 21 21 20 19 16 14 13 13 13 15 16 16 17 18 18 19 20 19 19 19 20 20 19 19 18 18 18 18 19 20 21 22 23 24 25 26 26 27 27 29 30 32 33 34 34 35 35 34 34 34 35 36 37 38 39 39 39 39 39 39 39 38 37 36 35 35 34 34 34 33 33 33 33 32 32 32 32 31 31 30 29 28
22 21 21 20 20 20 20 19 17 15 15 14 13 14 16 18 18 19 18 19 21 21 20 20 19 19 18 17 17 17 17 18 18 18 19 20 21 22 23 24 25 26 27 28 29 30 31 33 34 34 35 35 34 34 34 35 36 38 38 39 39 39 39 39 39 38 37 36 35 34 34 33 33 33 33 33 33 32 32 32 32 32 32 31 30 29
21 20 19 19 19 18 18 18 17 17 16 16 15 14 15 17 19 19 18 20 21 21 21 20 19 19 18 17 16 15 16 17 17 18 18 18 18 19 19 20 21 22 23 24 25 27 28 30 31 33 34 34 34 34 33 34 35 36 37 38 38 38 38 37 37 36 36 35 34 33 33 33 33 33 33 33 32 32 32 31 31 32 32 32 31 30
20 20 19 18 18 18 18 17 16 16 18 18 19 19 20 19 18 17 17 19 20 20 20 19 19 18 18 17 16 16 16 16 17 18 18 18 18 17 17 18 18 19 19 20 21 23 24 26 28 30 32 33 33 32 32 33 34 35 35 36 36 36 36 35 35 34 34 34 33 33 33 33 33 33 33 33 32 32 31 31 31 32 32 32 31 31
18 17 14 13 15 18 18 18 18 18 20 20 20 20 21 19 17 17 17 17 18 18 17 17 17 18 18 18 17 17 17 16 16 17 18 18 18 17 17 17 17 17 17 18 19 20 21 22 24 26 28 30 30 31 31 31 31 32 33 34 35 35 34 34 34 33 33 33 33 33 33 34 34 33 33 33 32 32 32 32 32 33 32 32 31 30
19 16 12 11 15 19 20 20 19 19 20 20 20 19 18 17 17 18 17 16 16 15 14 14 14 14 17 18 18 17 17 17 16 17 18 18 17 16 16 16 17 17 17 18 18 18 19 19 21 22 24 26 28 29 31 30 30 29 30 31 32 33 33 33 33 33 32 32 32 33 33 34 34 33 33 33 33 32 32 33 33 33 32 31 30 30
19 18 16 15 16 18 20 20 19 19 19 18 18 18 18 17 17 18 17 17 15 14 13 12 8 5 9 14 16 17 17 17 17 16 16 17 16 16 15 15 16 17 17 17 18 18 17 18 19 20 22 24 26 28 30 30 29 28 28 28 29 31 32 32 32 32 32 32 32 32 33 33 34 33 33 33 33 33 33 33 33 32 31 31 30 30
19 19 19 17 17 18 20 19 18 18 17 17 17 18 18 18 17 17 17 17 16 14 13 13 9 5 4 7 11 14 15 16 15 15 15 16 16 16 15 15 16 17 17 17 17 17 17 18 18 19 20 22 24 27 30 31 31 29 28 28 28 29 30 31 31 32 32 32 32 32 32 33 33 33 33 33 33 33 33 33 32 32 31 31 30 29
20 20 19 18 18 19 19 19 19 18 17 17 17 17 16 17 17 16 16 17 17 16 15 13 12 12 10 11 13 13 13 14 14 14 14 14 15 15 14 15 16 16 17 18 17 17 17 18 19 20 21 22 24 26 29 31 32 32 32 31 30 29 29 30 31 32 32 31 31 32 32 33 33 34 34 34 34 33 33 33 32 31 31 30 30 29
22 23 21 20 19 19 19 20 19 19 18 18 17 16 15 16 16 16 16 17 18 18 18 16 15 15 16 16 16 14 12 12 13 13 13 14 14 14 14 14 15 16 17 18 18 17 17 18 19 20 21 23 25 26 28 30 32 33 34 34 34 33 32 32 32 33 33 33 32 32 32 33 34 34 34 34 34 34 34 33 32 31 30 30 29 28
21 22 24 23 20 19 20 20 19 19 19 18 16 16 16 16 16 16 17 17 18 18 18 17 17 18 18 17 17 15 13 13 13 12 12 12 13 14 14 14 15 16 17 17 17 17 17 17 18 19 20 22 24 25 27 29 31 32 34 35 36 36 36 35 35 35 35 35 35 34 34 34 35 35 35 35 35 35 34 32 31 31 30 29 28 27
20 21 22 23 23 22 22 21 20 20 18 18 17 17 17 17 16 17 17 17 18 18 18 18 19 20 19 18 17 15 14 13 14 13 11 10 11 13 13 14 14 15 17 17 17 16 17 17 18 19 20 21 23 24 26 28 29 31 33 34 36 37 37 37 37 37 37 38 37 37 37 37 37 36 36 36 35 34 33 32 31 30 30 29 28 27
24 22 21 21 22 24 24 23 22 21 20 19 20 20 19 19 19 18 18 18 18 18 19 19 20 20 19 17 16 16 15 14 15 14 12 8 9 12 13 13 14 15 16 17 16 16 16 17 18 19 20 21 23 24 26 27 29 30 32 33 35 36 37 38 38 39 39 40 39 39 39 38 38 38 37 36 35 34 32 31 30 30 29 29 28 27
27 24 22 21 22 24 25 24 23 23 22 22 22 22 22 22 21 21 20 19 18 17 17 17 17 17 17 17 16 16 16 15 15 14 13 11 12 13 13 13 13 14 16 16 15 15 16 17 18 18 19 21 22 24 25 27 28 30 31 32 34 35 36 37 38 39 40 40 40 40 39 39 39 38 37 36 34 33 31 31 30 29 29 28 28 27
27 25 23 22 22 23 25 25 25 25 25 25 24 23 23 23 22 21 21 19 17 15 14 14 14 13 15 15 15 15 16 16 16 15 13 12 14 15 14 13 13 14 15 15 15 15 15 16 17 18 18 19 21 23 25 26 28 29 30 31 32 34 35 35 37 38 38 39 39 39 39 39 39 38 36 34 33 32 31 30 29 29 29 28 28 27
28 27 26 25 23 23 24 25 26 26 27 27 26 25 23 21 20 19 18 17 16 14 13 11 10 12 15 14 14 14 16 16 17 17 15 13 13 14 15 14 14 14 14 14 14 14 15 16 16 17 17 18 20 21 23 25 27 28 29 30 31 32 33 34 35 36 37 38 38 38 38 38 37 36 34 32 31 30 29 29 29 29 28 28 27 27
32 31 30 28 26 25 24 24 25 26 27 27 27 26 23 21 19 17 17 17 17 16 13 9 8 10 13 12 13 14 15 16 17 18 17 15 13 13 14 14 14 14 14 14 14 14 15 15 16 16 17 17 18 19 21 23 25 26 27 28 29 30 31 32 33 34 35 36 36 37 37 36 35 33 31 30 29 29 29 28 28 28 28 27 27 27
33 33 32 32 30 29 28 27 26 27 28 28 28 27 25 22 19 17 18 19 19 17 14 10 8 7 7 8 12 15 15 15 16 17 17 15 12 12 15 14 14 13 13 13 13 14 15 16 16 16 16 16 16 17 19 21 22 24 25 27 28 28 29 30 31 32 33 33 34 34 34 33 31 30 29 28 28 28 28 28 28 28 27 27 26 26
31 32 32 32 32 31 31 30 29 28 29 29 30 29 28 26 22 20 21 20 18 16 15 13 11 9 8 11 13 14 14 15 16 17 17 14 13 14 15 14 13 13 12 11 11 13 14 15 16 16 16 16 16 16 16 17 19 21 23 25 26 27 28 28 29 30 30 30 31 31 30 30 29 28 28 28 28 28 28 28 28 27 27 27 26 26
25 27 28 29 30 30 30 30 30 30 29 29 30 30 30 29 26 24 22 20 17 16 15 15 14 13 12 10 9 9 11 15 17 16 16 14 13 13 15 13 13 13 11 8 7 7 10 13 15 15 16 16 16 15 15 15 16 17 19 21 23 25 26 27 28 28 28 28 28 28 28 28 28 28 28 28 29 29 28 28 28 27 26 26 26 26
21 22 23 24 25 26 27 28 28 29 29 29 29 29 29 29 28 26 23 20 18 17 16 15 15 15 13 7 4 4 5 13 16 17 18 15 14 14 14 13 13 13 12 9 4 1 4 7 10 13 14 15 15 15 14 14 14 14 15 17 20 22 25 26 26 27 27 27 27 28 28 28 28 28 28 28 28 29 28 29 28 28 27 26 25 25
20 20 20 20 20 21 22 23 24 25 27 27 27 28 28 28 28 27 25 23 21 19 18 18 17 16 16 11 8 6 6 11 15 17 19 17 15 15 14 13 12 13 14 13 10 5 3 2 4 8 11 13 14 14 14 13 13 13 14 15 16 19 22 24 25 26 26 27 28 28 28 28 29 29 29 29 29 29 29 29 29 29 27 26 25 24
20 20 19 18 17 17 18 19 20 21 22 24 25 26 27 27 26 25 26 25 24 22 20 19 18 18 17 17 16 15 15 15 14 16 19 17 15 14 14 13 13 13 13 14 14 12 8 5 5 6 8 10 12 13 13 13 13 13 13 14 14 16 18 20 22 24 25 26 27 28 28 29 29 29 29 30 30 30 30 30 30 30 28 26 25 24
20 20 19 18 17 17 17 17 18 19 20 21 22 23 24 25 25 24 24 25 25 24 22 21 20 19 18 17 17 18 19 18 16 16 19 18 16 14 14 14 13 13 12 12 13 13 12 11 9 7 6 7 9 11 12 12 13 13 13 13 14 14 15 16 18 20 22 23 24 25 26 27 28 29 29 30 30 30 30 30 31 31 30 28 26 24
18 19 19 18 17 16 16 16 17 18 19 20 20 21 22 23 24 24 24 24 25 26 25 24 24 23 20 18 16 16 18 18 17 17 19 19 17 15 14 14 14 14 12 12 11 11 10 12 12 10 7 6 7 9 10 11 12 12 13 13 14 14 14 14 16 17 19 20 21 22 23 24 25 26 27 28 29 29 30 30 30 31 31 30 28 26
17 17 18 17 16 16 16 16 16 17 18 18 19 20 21 22 23 24 24 24 24 25 27 27 26 26 24 22 20 19 19 18 17 18 19 20 19 17 14 15 16 15 13 13 12 11 9 10 12 12 10 7 6 7 10 11 12 12 13 13 14 14 14 15 15 16 17 18 18 19 20 20 21 22 23 24 26 27 28 29 30 30 31 31 31 29
14 14 16 16 15 15 16 16 17 17 17 18 19 20 21 22 23 23 23 24 24 24 25 26 27 27 25 25 24 23 21 19 17 18 20 21 21 18 16 16 16 16 15 14 13 12 11 9 9 10 11 9 7 7 8 10 12 13 13 14 14 14 15 15 15 16 16 17 17 18 18 18 19 19 19 20 21 23 25 26 28 29 30 31 32 32
12 13 15 16 16 16 16 16 17 17 18 18 19 19 21 22 23 23 23 23 23 24 23 24 25 26 26 26 26 25 23 20 19 19 20 21 21 20 18 17 17 17 17 17 16 15 12 8 6 6 5 9 11 11 10 10 11 12 13 14 14 14 14 15 15 15 16 16 17 17 17 17 17 17 17 18 18 19 21 22 24 26 27 28 30 31
12 13 14 16 16 17 17 17 17 18 18 19 19 20 21 22 23 23 23 23 23 23 22 23 23 24 25 27 27 26 25 23 22 21 22 22 22 21 20 18 18 18 18 17 17 17 15 11 8 6 4 7 10 12 12 11 11 12 13 13 14 14 15 15 15 16 16 16 16 16 17 17 17 17 16 17 17 18 19 20 21 22 23 24 26 27
14 14 15 16 17 17 18 18 18 18 18 18 19 19 20 20 20 21 22 22 22 22 22 22 22 22 23 25 25 26 26 26 25 24 24 24 24 23 21 19 19 18 18 18 18 17 17 16 14 13 12 10 9 11 12 12 12 12 12 12 12 13 15 16 16 16 16 16 16 16 16 17 17 17 17 17 18 18 19 19 19 20 21 22 22 23
16 16 16 17 17 17 18 18 17 17 17 17 17 18 18 18 18 18 19 19 19 19 20 20 20 20 20 22 23 24 25 27 27 26 26 26 26 25 23 21 19 18 19 18 18 18 18 17 16 15 15 13 12 12 13 13 13 14 13 12 12 13 15 16 16 16 16 16 17 17 17 17 17 18 18 19 19 19 19 19 19 19 20 21 21 21
17 17 17 17 17 17 17 16 16 16 16 16 16 17 17 17 17 17 16 16 16 17 17 17 17 17 17 18 20 21 23 24 26 27 28 28 28 28 26 23 21 20 19 18 18 18 19 19 18 16 15 14 13 12 12 14 14 15 15 14 13 13 13 15 17 17 17 17 17 18 18 18 18 18 19 19 20 20 20 20 20 20 20 20 21 21
17 17 17 17 16 15 15 15 15 15 15 15 16 16 17 17 17 17 16 15 15 16 16 16 16 16 15 15 16 17 20 22 24 25 27 28 29 29 28 27 24 22 20 18 17 18 18 19 19 18 17 17 15 14 13 14 14 15 16 15 14 12 10 12 15 17 17 18 18 18 19 18 18 19 19 19 19 19 20 20 21 21 21 21 21 21
18 18 17 16 16 16 15 15 15 15 15 15 15 16 16 17 17 17 17 16 16 15 15 16 15 15 14 14 14 15 16 19 22 24 25 27 29 30 30 29 28 26 23 20 18 17 17 18 19 19 19 17 16 15 15 14 14 15 15 16 16 15 12 12 14 16 17 18 18 19 19 19 19 18 19 19 19 20 20 21 21 22 22 22 22 22
19 18 17 17 16 16 16 17 16 16 16 16 16 15 15 16 17 17 17 16 16 15 15 15 14 13 12 13 14 14 14 15 18 20 23 25 27 29 30 30 29 28 27 25 23 21 19 17 18 19 19 18 17 17 16 15 15 15 15 16 16 17 17 15 14 15 16 17 18 18 19 19 18 18 18 19 19 20 20 21 21 22 22 23 23 23
18 17 17 16 16 16 17 18 17 16 16 16 16 16 15 16 16 17 17 17 16 15 15 15 14 12 11 12 13 13 13 13 15 16 19 21 24 26 29 30 29 29 28 27 26 25 23 20 19 18 18 18 18 18 18 17 16 15 15 15 16 16 17 16 16 15 16 16 17 17 18 18 18 18 18 18 19 20 20 21 22 22 22 23 23 23
16 16 15 15 15 16 17 17 17 16 16 16 17 17 17 16 16 17 17 18 17 16 15 15 14 13 13 13 13 12 12 13 13 14 16 17 20 22 25 27 29 29 29 27 26 26 25 25 23 21 19 17 16 17 18 18 17 16 16 16 16 16 16 16 17 17 16 16 17 17 17 17 18 18 18 18 19 19 20 21 22 22 22 23 23 24
15 14 15 15 14 15 15 16 16 16 15 15 16 17 17 17 17 17 17 18 18 17 15 14 14 14 14 14 14 14 13 13 13 13 14 15 16 18 20 22 24 26 27 27 27 27 27 28 27 25 22 19 17 16 16 17 18 17 17 17 16 16 16 17 17 17 17 17 17 17 17 18 18 18 18 18 18 18 20 21 21 22 22 23 24 24
15 15 15 14 14 14 14 15 15 15 15 15 15 15 16 17 18 18 17 17 17 17 16 15 14 13 13 13 14 15 15 14 14 13 13 14 14 15 16 18 19 21 22 23 24 25 26 27 28 28 26 22 20 19 18 18 18 17 17 17 17 17 17 17 17 17 17 17 18 18 19 19 19 19 18 18 18 19 20 20 21 22 22 23 24 24
15 15 15 14 14 14 14 15 15 15 15 14 14 14 14 15 17 18 18 17 17 17 16 15 14 13 12 13 14 14 14 14 13 13 13 13 13 14 14 15 15 16 17 17 17 18 18 20 22 25 27 26 24 22 20 20 19 18 17 17 17 17 17 17 17 17 17 17 17 18 19 20 20 20 19 18 19 20 20 21 22 22 23 23 23 25
15 15 15 14 14 14 15 15 15 14 14 14 14 14 14 14 15 16 17 16 16 16 16 16 15 14 13 13 13 14 14 14 13 13 13 13 13 13 13 14 14 13 12 11 11 10 9 9 11 15 21 26 28 27 24 21 19 17 16 17 18 17 16 16 17 17 17 17 17 18 19 20 20 20 20 19 19 19 20 21 22 22 23 22 23 24
Wind_Direction
273 273 272 270 269 268 266 262 259 259 261 261 258 256 256 253 252 252 251 250 251 253 255 257 259 260 259 257 255 253 252 251 251 251 251 250 250 251 251 251 251 250 249 248 247 245 243 241 240 239 238 237 236 235 235 234 234 233 233 234 234 234 233 233 233 233 233 233 233 233 232 232 232 232 232 233 233 234 234 234 233 234 234 234 235 235
272 273 272 270 268 267 267 264 261 258 260 261 259 256 256 256 256 255 254 252 251 252 254 256 259 260 260 259 258 256 254 253 252 252 251 251 251 250 250 250 250 250 249 249 248 247 245 242 240 239 238 237 237 236 235 235 234 234 234 234 234 234 234 234 233 233 232 232 232 231 231 231 231 232 232 233 234 234 234 234 233 233 233 234 234 235
273 273 272 271 268 266 266 266 263 259 258 259 259 256 255 256 257 257 257 256 254 253 253 255 257 259 260 260 259 257 256 254 253 252 252 251 250 249 249 249 249 249 249 249 249 248 247 244 242 239 238 237 237 236 236 235 234 234 234 234 234 235 235 235 234 233 232 232 231 230 230 230 231 232 233 234 234 234 234 233 233 233 233 233 234 235
271 271 271 271 269 266 264 265 264 262 259 258 257 256 254 255 256 257 257 257 257 256 255 255 257 259 260 260 259 257 256 254 253 252 252 252 251 250 249 248 248 249 249 249 249 248 248 247 244 241 239 238 237 236 236 235 235 234 234 234 235 235 235 235 235 234 233 232 231 230 229 229 230 232 233 234 234 234 234 233 232 232 233 233 234 235
267 267 269 270 268 266 264 263 263 261 259 257 256 255 254 253 254 256 257 257 257 257 258 258 257 258 259 259 258 257 255 254 253 252 251 252 251 251 250 249 248 248 249 249 248 248 248 248 247 245 242 240 238 237 236 235 235 234 234 234 234 235 235 235 235 234 233 232 231 230 230 230 231 232 233 234 234 234 234 233 233 232 233 234 234 235
265 265 267 267 266 265 264 262 260 258 257 256 255 253 252 252 252 253 254 255 256 257 258 259 259 258 258 258 257 256 255 254 253 252 251 252 252 251 251 250 249 248 248 248 248 248 248 248 248 247 245 243 240 238 236 235 234 234 234 234 234 234 234 234 234 234 233 231 230 230 230 231 231 232 232 233 233 234 234 233 233 233 234 234 235 235
264 265 265 265 264 263 262 259 256 254 254 254 254 252 251 250 249 249 250 252 253 255 258 259 259 259 258 257 257 256 255 254 253 252 252 252 252 252 252 251 250 249 248 248 248 248 247 248 248 248 247 245 243 240 237 236 234 234 233 233 233 233 233 233 233 232 231 230 230 230 230 231 231 232 232 232 232 232 232 232 233 233 234 235 235 235
264 265 264 263 263 262 259 256 254 252 250 249 249 249 249 250 249 249 249 249 251 253 256 258 260 259 258 257 257 256 255 254 253 253 252 252 252 252 252 251 250 249 248 248 247 247 247 247 246 247 247 246 245 242 239 237 235 234 233 233 233 233 232 232 232 231 230 229 229 230 230 231 231 232 231 231 232 231 231 232 232 232 233 235 236 237
262 264 263 261 260 260 260 257 254 250 245 242 242 244 248 250 252 252 251 250 250 250 252 254 257 258 258 257 256 255 254 253 252 252 252 252 252 252 252 252 251 250 249 248 247 246 246 246 245 245 245 246 245 244 241 238 236 235 234 233 233 232 232 231 230 230 229 229 229 229 230 230 231 231 231 231 231 231 231 232 232 232 233 234 236 239
257 259 260 260 258 256 257 258 256 250 242 238 238 240 243 247 252 255 256 256 254 252 250 251 253 256 258 257 255 254 254 253 252 252 251 251 252 253 253 252 252 251 250 248 248 247 246 245 245 245 244 245 245 244 242 239 237 235 234 233 232 232 231 230 229 229 228 228 228 229 229 230 230 231 231 231 231 231 231 232 232 233 233 234 236 238
254 255 256 257 256 254 253 254 254 249 241 237 238 240 241 241 246 252 257 259 259 257 254 252 252 253 256 257 256 254 253 254 254 253 252 252 253 253 254 254 253 252 251 250 249 248 246 245 244 244 243 243 244 244 243 241 238 235 233 232 232 231 230 229 229 228 228 228 228 228 229 229 230 231 231 231 231 231 231 232 232 233 233 235 236 237
252 253 253 253 253 252 251 249 247 244 240 237 237 240 241 239 241 246 251 257 259 260 259 258 256 254 254 255 256 255 254 254 254 255 255 254 253 253 253 253 253 253 252 251 250 248 247 246 245 243 243 242 243 244 245 242 239 235 233 231 230 230 229 228 228 227 227 227 227 228 229 230 230 231 231 231 231 231 231 231 231 232 233 234 235 236
250 250 250 250 249 248 247 246 244 241 237 235 234 236 240 241 241 242 244 250 254 257 259 260 260 258 255 253 252 253 254 254 255 255 256 254 252 250 250 251 251 251 250 250 249 247 246 245 244 243 242 241 242 244 245 244 241 236 233 231 229 228 227 227 226 226 226 226 227 228 229 230 231 231 231 231 230 230 229 229 230 231 232 233 234 235
247 247 247 246 245 245 243 241 239 237 237 236 237 240 243 244 241 239 240 245 250 253 255 258 259 259 258 254 251 250 251 252 254 255 255 253 250 247 247 248 248 247 247 247 247 246 244 243 242 241 240 240 241 243 244 244 242 238 234 230 228 227 226 226 225 226 226 226 227 228 229 231 231 232 231 230 229 228 227 227 229 230 231 232 233 233
243 243 243 243 244 243 242 240 238 238 239 238 238 240 243 242 239 237 238 242 247 249 251 253 256 257 257 255 252 248 247 247 249 251 253 252 249 247 245 245 246 246 245 244 245 245 243 241 240 239 238 238 239 240 242 243 243 241 236 231 228 226 226 226 226 226 227 227 228 229 230 231 232 232 231 230 228 227 226 227 228 229 230 231 231 232
241 240 239 241 243 244 243 241 238 238 239 238 237 237 237 237 236 236 237 240 244 247 247 249 253 257 258 256 251 245 241 240 242 246 250 252 250 246 241 242 244 245 244 243 244 244 243 241 239 238 238 237 237 237 238 241 243 243 239 234 230 228 227 227 227 228 228 229 230 230 231 232 232 232 231 229 228 227 226 227 228 229 229 230 230 230
241 240 241 242 243 244 243 240 238 237 237 235 234 234 234 233 234 235 236 239 242 244 244 244 245 253 260 259 252 242 236 235 238 242 247 250 250 246 239 238 240 243 244 243 243 242 241 240 239 239 238 237 236 235 236 238 241 243 242 238 234 231 229 228 229 229 230 231 231 232 232 232 232 231 230 229 228 226 226 226 227 227 228 228 228 229
239 239 241 242 243 243 242 240 237 235 234 231 232 233 234 233 233 234 235 237 239 240 241 242 242 243 251 259 255 244 230 226 230 237 242 246 248 246 239 236 237 241 243 244 243 242 240 239 239 238 238 237 236 235 235 236 239 241 242 241 238 236 233 232 231 231 232 232 232 232 233 233 232 231 230 228 227 227 227 227 227 227 227 227 227 227
241 240 239 240 242 243 242 240 238 235 233 232 232 233 233 233 233 232 232 234 236 238 240 242 244 246 247 253 255 250 233 220 223 233 239 244 246 244 237 233 234 239 242 243 243 242 241 240 239 239 239 238 237 236 235 236 238 239 241 241 240 239 237 235 234 234 233 233 233 233 233 233 232 230 229 227 227 226 227 227 227 226 226 226 226 226
245 244 240 240 241 242 243 241 238 235 232 232 231 230 230 232 231 230 231 234 236 238 239 241 243 246 247 251 253 250 235 218 216 225 236 242 244 242 235 230 231 237 240 242 243 242 241 241 241 241 240 238 238 236 236 236 237 239 240 240 240 240 239 238 237 236 235 234 233 233 233 233 232 230 228 227 226 226 226 226 225 225 225 225 226 226
248 247 244 241 239 241 243 241 237 234 232 229 228 227 229 230 231 231 231 232 234 236 237 240 242 245 247 249 250 247 235 218 214 221 233 241 243 241 234 229 230 235 240 242 242 240 240 240 241 241 240 239 238 236 236 236 236 237 238 239 240 240 239 239 238 238 237 236 234 233 232 232 231 230 229 227 226 226 225 225 224 224 225 225 225 226
256 253 249 244 240 240 241 240 238 234 229 225 224 225 228 229 230 231 231 231 232 233 234 237 241 244 246 247 246 243 234 219 214 219 232 241 244 240 234 227 229 234 240 242 241 240 239 240 241 242 242 240 239 237 236 235 235 235 236 237 237 238 238 237 237 237 236 235 234 232 231 230 230 229 228 227 226 225 224 223 223 223 224 225 226 227
266 262 257 249 242 239 239 239 237 233 228 224 223 224 226 227 229 231 232 232 233 234 236 239 242 245 245 245 244 241 233 221 216 219 230 237 244 242 235 228 228 234 239 241 241 240 239 239 241 242 243 241 240 239 237 237 236 235 235 235 235 235 235 234 234 234 234 233 232 231 229 228 228 228 227 226 225 224 222 222 222 222 223 225 226 227
266 265 262 254 245 239 237 236 234 232 228 226 225 226 228 229 231 233 236 237 238 239 240 241 243 244 244 243 241 239 233 224 216 215 224 235 244 246 241 232 230 234 239 240 239 238 239 240 241 242 243 242 241 240 239 238 237 236 235 235 234 233 232 232 231 231 231 230 229 228 227 226 226 226 226 225 223 222 221 221 221 222 223 225 227 229
262 262 261 257 251 244 239 235 233 231 229 228 228 229 230 231 233 237 240 241 241 240 240 240 240 241 241 239 238 236 232 224 215 212 220 235 246 248 245 237 234 236 240 241 238 236 237 239 241 242 242 242 241 241 240 239 239 238 237 236 234 233 232 231 230 229 229 228 227 226 225 225 225 225 224 223 221 220 220 220 221 222 224 226 228 231
259 259 259 258 256 251 245 238 235 233 231 229 229 229 229 230 232 234 236 236 235 234 233 234 236 238 240 239 237 234 232 225 218 215 220 232 244 248 246 240 236 238 243 243 239 235 235 238 240 240 240 241 241 240 240 240 239 239 238 237 235 234 232 231 230 229 228 226 225 224 224 224 224 223 222 221 220 219 220 221 222 224 226 228 231 233
257 257 258 259 258 255 250 244 238 234 232 232 230 228 227 226 226 228 229 230 229 227 227 228 234 238 241 239 238 236 233 226 220 218 220 227 238 246 245 242 239 240 244 245 242 237 235 237 239 239 239 239 239 239 239 240 239 239 238 237 236 234 233 231 230 229 227 225 224 223 222 222 222 221 220 219 219 220 221 222 224 226 228 230 232 235
256 257 258 258 258 257 254 250 244 239 235 233 232 229 225 222 221 224 227 228 227 224 224 225 230 235 236 238 240 239 235 228 222 219 217 221 230 241 243 242 241 240 243 246 246 242 238 238 239 240 240 238 238 238 238 239 239 239 238 236 235 234 233 231 230 228 226 225 223 222 221 221 220 220 219 219 220 221 223 224 226 227 229 231 233 236
256 256 256 256 256 256 255 253 250 246 240 236 234 231 226 221 219 222 228 228 225 222 224 226 230 233 236 241 243 242 237 231 224 217 211 214 226 238 241 241 239 238 241 247 250 248 242 240 239 240 239 238 237 237 237 237 237 237 237 235 234 233 231 229 228 226 225 223 222 221 220 220 220 220 220 221 222 223 225 225 226 228 229 231 233 236
254 254 254 254 253 253 253 252 252 250 247 243 240 236 231 225 222 222 226 225 222 220 222 227 230 232 235 240 243 242 238 233 225 213 204 207 222 235 237 237 235 234 235 242 250 252 246 242 239 236 235 236 236 235 234 233 233 233 233 232 232 230 229 227 225 224 223 222 221 221 220 220 220 221 222 223 224 224 225 225 226 227 229 231 233 235
251 251 251 251 251 250 249 249 249 249 249 248 246 243 238 232 227 224 223 222 220 220 222 225 227 228 228 228 228 231 233 234 224 211 202 206 220 231 232 232 232 232 229 230 235 269 255 248 239 233 230 232 233 231 230 228 226 226 226 227 227 227 225 224 223 222 222 222 222 222 222 222 222 223 223 224 224 225 225 225 226 227 229 231 232 234
251 249 249 249 248 247 246 245 245 245 245 246 246 245 243 239 233 227 222 220 219 220 223 226 227 227 226 225 227 231 236 236 225 210 203 206 219 228 228 227 229 230 228 227 231 244 261 264 245 235 226 227 228 228 225 223 220 218 218 219 221 223 222 221 221 221 221 221 222 222 222 223 223 223 224 224 225 225 226 226 227 227 228 230 232 233
249 248 248 247 245 243 242 241 241 240 240 240 241 241 242 241 238 233 227 222 219 219 221 224 227 228 229 229 231 235 238 238 228 212 202 204 213 223 224 223 225 227 227 228 231 238 246 256 261 250 232 225 223 223 223 221 218 215 213 213 216 218 219 219 219 219 220 221 221 222 223 223 224 224 224 225 226 226 227 227 228 228 229 230 231 233
247 246 245 245 243 241 239 238 237 236 236 236 236 237 237 237 237 236 232 226 222 219 219 222 225 228 229 231 233 236 238 236 230 216 204 201 208 217 220 219 219 221 224 227 230 234 240 246 252 254 244 229 222 220 220 219 217 214 211 210 211 213 214 215 216 218 219 220 221 222 223 224 224 225 226 227 227 228 229 229 229 230 230 231 232 233
245 243 243 241 240 238 237 235 235 234 234 234 234 234 234 233 233 234 233 230 226 222 221 222 224 227 228 230 233 235 235 234 228 217 206 202 205 212 216 217 217 218 219 223 226 229 235 239 241 243 245 238 229 223 219 218 216 214 212 210 210 210 210 210 213 215 217 219 220 221 222 223 225 226 227 228 229 230 230 231 231 232 232 232 233 233
245 243 242 239 237 236 235 235 234 233 233 233 232 231 231 230 231 231 231 230 228 226 224 224 226 227 228 230 232 234 235 233 227 218 210 206 207 210 214 219 218 216 216 220 223 226 230 235 236 237 238 239 235 228 223 219 216 214 214 212 212 211 211 210 210 212 214 216 218 219 220 221 222 224 226 228 229 230 231 232 233 233 234 234 234 234
244 244 243 240 237 235 235 235 234 233 232 231 231 230 229 228 229 229 229 229 228 227 226 226 226 227 228 230 232 234 236 234 228 221 214 211 209 210 215 219 218 215 213 217 221 224 226 230 233 234 234 235 235 232 225 217 213 213 214 214 213 212 212 211 210 209 211 212 214 215 216 217 219 221 223 225 228 230 231 233 234 235 235 236 236 236
243 244 245 243 240 236 234 234 234 233 232 231 230 229 228 228 228 228 228 228 227 227 226 226 227 227 228 230 232 233 234 233 230 225 219 214 212 212 216 220 222 220 216 218 220 222 223 224 225 226 228 232 234 233 227 216 211 211 214 214 213 212 212 211 209 208 209 211 212 213 214 215 216 218 221 223 225 227 230 232 233 234 236 237 237 238
246 247 248 246 244 240 238 236 235 234 233 232 231 229 228 228 229 229 228 227 227 226 226 226 227 227 228 229 231 232 232 232 230 227 223 218 216 215 217 221 224 224 221 219 220 221 221 222 221 220 220 229 232 231 227 220 213 210 210 210 212 213 213 211 210 209 209 210 211 212 214 215 216 218 220 221 222 224 226 229 231 232 233 235 237 238
255 255 253 250 248 245 243 242 240 238 234 232 231 229 227 226 227 227 228 227 227 226 227 227 228 229 229 229 230 230 231 231 230 228 226 222 219 218 219 221 224 225 223 221 220 220 221 223 224 226 227 227 226 225 223 221 216 209 204 204 208 212 213 211 210 209 209 210 211 213 214 215 217 219 220 221 221 222 224 226 227 229 229 230 232 235
262 261 259 256 253 250 247 244 242 238 234 229 226 224 222 221 221 222 224 225 225 225 226 226 227 228 230 230 230 230 230 230 230 229 227 225 222 220 221 222 224 225 226 224 222 221 221 222 224 226 226 225 224 224 223 221 217 211 205 204 207 210 210 209 209 209 210 211 212 214 215 217 219 220 222 223 224 224 225 226 227 228 228 227 227 229
264 263 261 260 256 252 249 246 242 237 231 226 221 219 218 216 216 216 217 218 220 221 222 222 223 225 227 228 228 228 228 228 228 229 228 226 224 222 222 223 225 226 226 225 224 223 222 222 223 224 223 222 223 224 224 222 219 214 210 209 209 211 211 210 209 209 208 210 212 215 216 218 219 221 222 224 226 227 227 227 228 227 227 227 227 227
266 264 262 261 258 255 251 247 241 234 228 222 219 218 218 216 214 213 215 216 217 217 217 218 219 221 224 225 225 225 225 226 227 228 228 227 225 224 223 224 225 225 225 225 226 225 224 224 223 223 223 223 222 223 223 223 221 218 215 212 210 208 210 209 208 207 207 209 212 215 216 218 220 222 224 226 227 228 228 229 229 229 228 228 228 229
268 266 264 262 260 258 254 248 241 233 225 221 220 220 218 216 213 212 213 215 217 217 215 215 216 219 223 225 226 224 224 224 224 226 227 227 226 224 224 224 225 225 225 225 226 226 226 225 224 224 224 223 223 223 225 224 222 220 217 215 212 211 212 211 207 205 207 210 213 215 216 218 220 223 226 227 228 229 229 229 230 230 230 230 230 231
269 267 265 262 260 257 254 250 244 236 231 226 223 221 218 215 212 210 212 215 217 217 215 213 212 215 222 225 226 225 224 222 221 222 223 226 227 226 225 224 225 226 227 227 227 227 226 226 225 225 224 222 222 224 224 225 225 223 220 217 216 217 218 217 212 207 207 209 212 214 216 216 218 221 225 227 227 228 228 228 229 230 230 231 231 232
269 267 264 261 258 255 252 250 246 239 233 228 226 223 219 214 211 210 212 214 217 217 216 212 210 213 220 223 224 224 223 221 219 218 219 221 224 226 226 226 225 225 226 227 228 229 229 229 228 226 224 223 223 223 224 224 225 225 224 221 219 220 221 220 217 213 211 211 212 214 214 214 215 218 222 225 227 228 228 228 229 230 230 230 231 232
268 266 264 261 258 255 253 251 247 240 234 231 229 227 223 217 213 211 213 214 216 217 216 214 213 215 220 222 222 222 222 221 220 218 217 217 218 220 223 225 226 226 227 227 228 229 230 231 231 229 226 224 223 223 224 223 223 225 225 224 223 222 222 222 220 218 216 216 216 216 215 213 214 218 222 225 227 229 230 230 230 230 231 231 233 234
268 267 265 263 261 258 256 253 248 241 235 231 229 227 224 219 214 211 212 214 215 216 216 216 216 218 221 223 223 222 222 222 221 219 217 215 215 216 219 222 225 228 229 229 230 231 231 232 232 231 228 226 225 225 224 223 223 223 224 225 225 224 224 225 224 223 222 221 221 219 217 216 217 220 224 227 229 231 232 232 232 232 232 232 234 235
269 268 267 265 263 260 258 256 251 245 238 233 229 226 223 219 214 211 212 212 213 214 215 216 217 219 221 223 224 224 223 224 224 222 219 216 214 214 215 218 222 226 228 230 231 231 231 231 231 230 228 226 227 229 230 228 226 224 224 224 225 226 227 228 227 227 226 225 224 223 222 222 223 224 226 229 232 235 235 235 235 234 233 233 234 236
268 267 266 264 261 259 258 257 254 250 244 237 231 226 221 217 213 211 211 211 212 213 215 216 218 219 221 222 223 223 223 224 224 223 221 217 213 211 211 213 215 219 225 228 229 228 227 228 228 227 227 226 226 228 231 232 231 228 225 224 225 226 227 229 229 229 229 228 228 227 226 227 227 228 229 231 235 238 239 239 238 237 236 235 235 237
269 267 265 263 261 259 259 258 257 254 249 241 233 225 219 215 212 210 210 210 211 213 215 217 218 220 222 224 224 223 222 222 223 222 221 217 212 209 208 208 209 212 217 222 224 223 221 223 225 226 227 226 226 226 228 230 231 230 229 228 227 227 227 229 231 232 231 232 231 230 228 228 229 229 229 231 235 239 241 242 241 240 238 237 237 239